• In Latvia
  • List of Countries
  • For 7 days
  • Water Temperature
  • Satellite Maps
  • Weather Map
  • Weather Widgets
  • user-avatar
    Login

    Hourly Weather Bekobod

    Today, 22 October, Monday

    Time Temperature Precipitation Wind Pressure Humidity
    00:00 +16°C° 0 mm 2 mps 739 mmHg 31%
    01:00 +15°C° 0 mm 2 mps 739 mmHg 31%
    02:00 +15°C° 0 mm 2 mps 739 mmHg 31%
    03:00 +15°C° 0 mm 2 mps 739 mmHg 30%
    04:00 +15°C° 0 mm 2 mps 739 mmHg 30%
    05:00 +14°C° 0 mm 2 mps 739 mmHg 30%
    06:00 +15°C° 0 mm 2 mps 739 mmHg 29%
    07:00 +16°C° 0 mm 2 mps 739 mmHg 28%
    08:00 +17°C° 0 mm 2 mps 739 mmHg 28%
    09:00 +19°C° 0 mm 2 mps 739 mmHg 25%
    10:00 +21°C° 0 mm 2 mps 739 mmHg 22%
    11:00 +24°C° 0 mm 3 mps 739 mmHg 19%
    12:00 +25°C° 0 mm 2 mps 738 mmHg 18%
    13:00 +25°C° 0 mm 2 mps 738 mmHg 18%
    14:00 +26°C° 0 mm 2 mps 737 mmHg 17%
    15:00 +25°C° 0 mm 2 mps 737 mmHg 20%
    16:00 +24°C° 0 mm 1 mps 737 mmHg 22%
    17:00 +23°C° 0 mm 1 mps 737 mmHg 25%
    18:00 +22°C° 0 mm 1 mps 737 mmHg 26%
    19:00 +20°C° 0 mm 1 mps 738 mmHg 28%
    20:00 +17°C° 0 mm 0 mps 738 mmHg 29%
    21:00 +18°C° 0 mm 1 mps 738 mmHg 29%
    22:00 +18°C° 0 mm 1 mps 738 mmHg 30%
    23:00 +18°C° 0 mm 1 mps 738 mmHg 30%

    Tomorrow, 23 October, Tuesday

    Time Temperature Precipitation Wind Pressure Humidity
    00:00 +16°C° 0 mm 1 mps 738 mmHg 30%
    01:00 +16°C° 0 mm 1 mps 738 mmHg 31%
    02:00 +15°C° 0 mm 1 mps 738 mmHg 31%
    03:00 +15°C° 0 mm 1 mps 738 mmHg 32%
    04:00 +14°C° 0 mm 1 mps 738 mmHg 33%
    05:00 +14°C° 0 mm 1 mps 738 mmHg 34%
    06:00 +15°C° 0 mm 1 mps 738 mmHg 33%
    07:00 +16°C° 0 mm 1 mps 738 mmHg 32%
    08:00 +16°C° 0 mm 1 mps 738 mmHg 31%
    09:00 +19°C° 0 mm 1 mps 738 mmHg 27%
    10:00 +21°C° 0 mm 1 mps 738 mmHg 24%
    11:00 +23°C° 0 mm 2 mps 738 mmHg 20%
    12:00 +24°C° 0 mm 2 mps 738 mmHg 20%
    13:00 +24°C° 0 mm 2 mps 738 mmHg 20%
    14:00 +25°C° 0 mm 2 mps 738 mmHg 19%
    15:00 +24°C° 0 mm 1 mps 738 mmHg 22%
    16:00 +23°C° 0 mm 1 mps 738 mmHg 24%
    17:00 +23°C° 0 mm 1 mps 738 mmHg 26%
    18:00 +21°C° 0 mm 1 mps 738 mmHg 28%
    19:00 +20°C° 0 mm 1 mps 738 mmHg 30%
    20:00 +19°C° 0 mm 1 mps 738 mmHg 31%
    21:00 +19°C° 0 mm 1 mps 738 mmHg 31%
    22:00 +17°C° 0 mm 2 mps 738 mmHg 31%
    23:00 +17°C° 0 mm 2 mps 738 mmHg 32%

    Day after tomorrow, 24 October, Wednesday

    Time Temperature Precipitation Wind Pressure Humidity
    00:00 +16°C° 0 mm 2 mps 738 mmHg 31%
    01:00 +16°C° 0 mm 2 mps 738 mmHg 31%
    02:00 +16°C° 0 mm 2 mps 737 mmHg 31%
    03:00 +16°C° 0 mm 2 mps 737 mmHg 31%
    04:00 +14°C° 0 mm 3 mps 737 mmHg 30%
    05:00 +14°C° 0 mm 3 mps 737 mmHg 30%
    06:00 +16°C° 0 mm 3 mps 737 mmHg 29%
    07:00 +16°C° 0 mm 3 mps 737 mmHg 28%
    08:00 +17°C° 0 mm 3 mps 738 mmHg 27%
    09:00 +19°C° 0 mm 3 mps 738 mmHg 24%
    10:00 +21°C° 0 mm 4 mps 738 mmHg 21%
    11:00 +23°C° 0 mm 4 mps 738 mmHg 18%
    12:00 +23°C° 0 mm 4 mps 737 mmHg 18%
    13:00 +25°C° 0 mm 4 mps 737 mmHg 17%
    14:00 +26°C° 0 mm 4 mps 737 mmHg 16%
    15:00 +25°C° 0 mm 3 mps 737 mmHg 18%
    16:00 +24°C° 0 mm 3 mps 737 mmHg 20%
    17:00 +23°C° 0 mm 2 mps 737 mmHg 22%
    18:00 +21°C° 0 mm 2 mps 737 mmHg 24%
    19:00 +19°C° 0 mm 2 mps 737 mmHg 25%
    20:00 +18°C° 0 mm 2 mps 737 mmHg 27%
    21:00 +18°C° 0 mm 2 mps 738 mmHg 27%
    22:00 +18°C° 0 mm 3 mps 738 mmHg 28%
    23:00 +18°C° 0 mm 3 mps 738 mmHg 29%

    25 October, Thursday

    Time Temperature Precipitation Wind Pressure Humidity
    00:00 +18°C° 0 mm 3 mps 737 mmHg 29%
    01:00 +18°C° 0 mm 3 mps 737 mmHg 29%
    02:00 +18°C° 0 mm 3 mps 737 mmHg 29%
    03:00 +18°C° 0 mm 3 mps 737 mmHg 29%
    04:00 +18°C° 0 mm 3 mps 737 mmHg 29%
    05:00 +18°C° 0 mm 4 mps 737 mmHg 29%
    06:00 +18°C° 0 mm 4 mps 738 mmHg 28%
    07:00 +18°C° 0 mm 4 mps 738 mmHg 27%
    08:00 +19°C° 0 mm 4 mps 738 mmHg 27%
    09:00 +20°C° 0 mm 4 mps 738 mmHg 24%
    10:00 +22°C° 0 mm 5 mps 738 mmHg 22%
    11:00 +24°C° 0 mm 6 mps 737 mmHg 19%
    12:00 +24°C° 0 mm 6 mps 737 mmHg 18%
    13:00 +26°C° 0 mm 6 mps 737 mmHg 17%
    14:00 +27°C° 0 mm 6 mps 736 mmHg 17%
    15:00 +26°C° 0 mm 6 mps 736 mmHg 18%
    16:00 +25°C° 0 mm 5 mps 736 mmHg 18%
    17:00 +23°C° 0 mm 5 mps 736 mmHg 19%
    18:00 +22°C° 0 mm 4 mps 737 mmHg 20%
    19:00 +21°C° 0 mm 4 mps 737 mmHg 21%
    20:00 +20°C° 0 mm 4 mps 737 mmHg 22%
    21:00 +20°C° 0 mm 4 mps 737 mmHg 22%
    22:00 +20°C° 0 mm 4 mps 737 mmHg 22%
    23:00 +20°C° 0 mm 4 mps 737 mmHg 23%

    26 October, Friday

    Time Temperature Precipitation Wind Pressure Humidity
    00:00 +20°C° 0 mm 4 mps 737 mmHg 23%
    01:00 +19°C° 0 mm 5 mps 737 mmHg 23%
    02:00 +19°C° 0 mm 5 mps 737 mmHg 23%
    03:00 +19°C° 0 mm 5 mps 737 mmHg 24%
    04:00 +19°C° 0 mm 5 mps 737 mmHg 24%
    05:00 +19°C° 0 mm 5 mps 737 mmHg 24%
    06:00 +20°C° 0 mm 5 mps 737 mmHg 24%
    07:00 +20°C° 0 mm 5 mps 738 mmHg 24%
    08:00 +21°C° 0 mm 4 mps 738 mmHg 24%
    09:00 +21°C° 0 mm 4 mps 738 mmHg 24%
    10:00 +22°C° 0 mm 5 mps 738 mmHg 23%
    11:00 +23°C° 0 mm 5 mps 738 mmHg 22%
    12:00 +23°C° 0 mm 6 mps 738 mmHg 23%
    13:00 +24°C° 0 mm 6 mps 737 mmHg 23%
    14:00 +26°C° 0 mm 7 mps 737 mmHg 23%
    15:00 +24°C° 0 mm 7 mps 737 mmHg 24%
    16:00 +24°C° 0 mm 6 mps 737 mmHg 25%
    17:00 +25°C° 0 mm 5 mps 737 mmHg 25%
    18:00 +23°C° 0 mm 5 mps 738 mmHg 26%
    19:00 +23°C° 0 mm 5 mps 738 mmHg 28%
    20:00 +22°C° 0 mm 5 mps 738 mmHg 29%
    21:00 +22°C° 0 mm 5 mps 738 mmHg 28%
    22:00 +22°C° 0 mm 5 mps 738 mmHg 27%
    23:00 +22°C° 0 mm 6 mps 738 mmHg 26%

    27 October, Saturday

    Time Temperature Precipitation Wind Pressure Humidity
    00:00 +22°C° 0 mm 6 mps 738 mmHg 26%
    01:00 +22°C° 0 mm 6 mps 738 mmHg 26%
    02:00 +21°C° 0 mm 6 mps 738 mmHg 26%
    03:00 +21°C° 0 mm 6 mps 738 mmHg 26%
    04:00 +21°C° 0 mm 6 mps 738 mmHg 25%
    05:00 +21°C° 0 mm 6 mps 738 mmHg 25%
    06:00 +21°C° 0 mm 6 mps 738 mmHg 25%
    07:00 +21°C° 0 mm 6 mps 738 mmHg 25%
    08:00 +22°C° 0 mm 6 mps 738 mmHg 24%
    09:00 +24°C° 0 mm 7 mps 738 mmHg 22%
    10:00 +27°C° 0 mm 7 mps 738 mmHg 20%
    11:00 +29°C° 0 mm 7 mps 738 mmHg 18%
    12:00 +29°C° 0 mm 7 mps 737 mmHg 18%
    13:00 +31°C° 0 mm 8 mps 737 mmHg 18%
    14:00 +31°C° 0 mm 8 mps 736 mmHg 18%
    15:00 +29°C° 0 mm 7 mps 736 mmHg 19%
    16:00 +28°C° 0 mm 6 mps 736 mmHg 21%
    17:00 +27°C° 0 mm 6 mps 736 mmHg 22%
    18:00 +27°C° 0 mm 5 mps 737 mmHg 23%
    19:00 +26°C° 0 mm 5 mps 737 mmHg 24%
    20:00 +26°C° 0 mm 5 mps 738 mmHg 25%
    21:00 +25°C° 0 mm 4 mps 738 mmHg 26%
    22:00 +25°C° 0 mm 4 mps 738 mmHg 26%
    23:00 +25°C° 0 mm 3 mps 738 mmHg 27%

    28 October, Sunday

    Time Temperature Precipitation Wind Pressure Humidity
    00:00 +24°C° 0 mm 3 mps 739 mmHg 29%
    01:00 +23°C° 0 mm 4 mps 740 mmHg 31%
    02:00 +22°C° 0 mm 4 mps 740 mmHg 34%
    03:00 +21°C° 0.1 mm 4 mps 741 mmHg 44%
    04:00 +20°C° 0.1 mm 4 mps 741 mmHg 55%
    05:00 +19°C° 0.1 mm 4 mps 742 mmHg 65%
    06:00 +18°C° 0.3 mm 4 mps 742 mmHg 71%
    07:00 +18°C° 0.3 mm 4 mps 743 mmHg 77%
    08:00 +18°C° 0.3 mm 4 mps 743 mmHg 83%
    09:00 +17°C° 0.2 mm 4 mps 744 mmHg 83%
    10:00 +15°C° 0.2 mm 4 mps 744 mmHg 83%
    11:00 +15°C° 0.2 mm 4 mps 744 mmHg 83%
    12:00 +15°C° 0.2 mm 4 mps 744 mmHg 80%
    13:00 +16°C° 0.2 mm 3 mps 744 mmHg 78%
    14:00 +16°C° 0.2 mm 3 mps 744 mmHg 75%
    15:00 +16°C° 0.2 mm 3 mps 744 mmHg 75%
    16:00 +16°C° 0.2 mm 2 mps 744 mmHg 74%
    17:00 +15°C° 0.2 mm 2 mps 744 mmHg 73%
    18:00 +15°C° 0.1 mm 2 mps 744 mmHg 73%
    19:00 +15°C° 0.1 mm 1 mps 744 mmHg 73%
    20:00 +14°C° 0.1 mm 1 mps 744 mmHg 73%
    21:00 +14°C° 0.1 mm 1 mps 744 mmHg 72%
    22:00 +14°C° 0.1 mm 1 mps 744 mmHg 72%
    23:00 +14°C° 0.1 mm 1 mps 744 mmHg 71%
    Show more